STARLINK-2495 (48325 NORAD) Tracking and Keplerian Element Data

This shows tracking and keplerian element data for the satellite.

Feedback or suggestion? Click here.




ElementValue
Catalog48325
NameSTARLINK-2495
Epoch Orbit185
Epoch Day170.58334491
Epoch Year2021
RAAN281.4215
Inclination53.0532
Eccentricity0.0001374
Argument of Perigee86.3992
Mean Anonmoly133.6647
Mean Motion15.06394554
Decay Rate6.4E-07
L11 48325U 21036BB 21170.58334491 .00000064 00000-0 23224-4 0 9999
L22 48325 53.0532 281.4215 0001374 86.3992 133.6647 15.06394554 1853

Live tracking and technical data element details for STARLINK-2495 (NORAD 48325). STARLINK-2495 can be tracked NOW for your location showing map with azimuth and elevation plus other details from your city location.

Track the satellite on the map from your city or location and see movement details for azimuth, elevation, latitude, longitude, range, height, and movement on the map or in text.







IsCatalogInMostPopularTable: catalog: 48325, numindb: 21
Update: records affected: 1



GetName: 48325 STARLINK-2495

Hit Count: updated at: Mon, 21 Jun 2021 03:43:59 GMT